CCA9691 ZGGG-ZSAM

Flight info

Callsign CCA9691
Flight time 0h 51m
Altitude 25600
Route LMN9 LMN G471 XEBUL DCT NUVGA DCT VETIB W155 TEBON TEBON8X
Aircraft A20N/M-SDE2E3FGHIRWXY/LB1

Departure

Time 2026-05-06 12:41
Airport Guangzhou Baiyun International Airport (ZGGG)

Arrival

Time 2026-05-06 13:33
Airport Xiamen Gaoqi International Airport (ZSAM)
Time Latitude Longitude Altitude Speed Heading
2026-05-06 12:16 23.40098 113.32016 58 ft 0 kts 284°
2026-05-06 12:28 23.40098 113.32018 58 ft 2 kts 284°
2026-05-06 12:29 23.40091 113.32045 56 ft 4 kts 284°
2026-05-06 12:29 23.40085 113.32073 51 ft 4 kts 276°
2026-05-06 12:29 23.40087 113.32102 51 ft 4 kts 245°
2026-05-06 12:29 23.40103 113.32121 51 ft 3 kts 196°
2026-05-06 12:30 23.40123 113.32127 51 ft 3 kts 194°
2026-05-06 12:30 23.40126 113.32128 51 ft 0 kts 194°
2026-05-06 12:34 23.40106 113.32122 51 ft 10 kts 194°
2026-05-06 12:34 23.39971 113.32085 52 ft 24 kts 194°
2026-05-06 12:34 23.39789 113.32037 55 ft 29 kts 193°
2026-05-06 12:34 23.39687 113.31991 56 ft 14 kts 236°
2026-05-06 12:35 23.39703 113.31870 55 ft 22 kts 282°
2026-05-06 12:35 23.39725 113.31766 56 ft 8 kts 279°
2026-05-06 12:35 23.39671 113.31706 56 ft 16 kts 199°
2026-05-06 12:35 23.39472 113.31651 53 ft 43 kts 196°
2026-05-06 12:36 23.39220 113.31583 53 ft 23 kts 194°
2026-05-06 12:36 23.39007 113.31525 52 ft 37 kts 193°
2026-05-06 12:36 23.38805 113.31470 56 ft 31 kts 194°
2026-05-06 12:36 23.38585 113.31413 53 ft 20 kts 192°
2026-05-06 12:37 23.38406 113.31364 53 ft 39 kts 194°
2026-05-06 12:37 23.38125 113.31288 53 ft 43 kts 193°
2026-05-06 12:37 23.37828 113.31207 55 ft 44 kts 193°
2026-05-06 12:37 23.37588 113.31143 52 ft 14 kts 193°
2026-05-06 12:38 23.37375 113.31086 53 ft 33 kts 193°
2026-05-06 12:38 23.37185 113.31032 54 ft 31 kts 193°
2026-05-06 12:38 23.36984 113.30980 53 ft 12 kts 193°
2026-05-06 12:38 23.36955 113.30971 53 ft 8 kts 205°
2026-05-06 12:39 23.36946 113.30901 57 ft 12 kts 281°
2026-05-06 12:39 23.36947 113.30894 55 ft 0 kts 281°
2026-05-06 12:40 23.36950 113.30877 53 ft 13 kts 281°
2026-05-06 12:40 23.36991 113.30781 54 ft 1 kts 335°
2026-05-06 12:41 23.37107 113.30808 51 ft 51 kts 13°
2026-05-06 12:41 23.37737 113.30980 55 ft 131 kts 14°
2026-05-06 12:41 23.38747 113.31247 528 ft 151 kts 14°
2026-05-06 12:41 23.39767 113.31524 1387 ft 152 kts 15°
2026-05-06 12:42 23.40816 113.31827 2111 ft 164 kts 17°
2026-05-06 12:42 23.41988 113.32174 2699 ft 185 kts 16°
2026-05-06 12:42 23.43304 113.32551 3352 ft 206 kts 15°
2026-05-06 12:42 23.44773 113.32953 4054 ft 229 kts 14°
2026-05-06 12:43 23.46398 113.33387 4820 ft 253 kts 13°
2026-05-06 12:43 23.48143 113.33849 5997 ft 260 kts 12°
2026-05-06 12:43 23.49905 113.34318 7293 ft 262 kts 12°
2026-05-06 12:43 23.51697 113.34794 8463 ft 269 kts 11°
2026-05-06 12:44 23.53537 113.35282 9219 ft 274 kts 11°
2026-05-06 12:44 23.55399 113.35776 9656 ft 276 kts 10°
2026-05-06 12:44 23.57296 113.36164 10140 ft 280 kts
2026-05-06 12:44 23.59220 113.36525 11173 ft 280 kts
2026-05-06 12:45 23.61135 113.36982 12284 ft 287 kts 18°
2026-05-06 12:45 23.62816 113.38168 13275 ft 300 kts 43°
2026-05-06 12:45 23.64542 113.42431 14834 ft 331 kts 78°
2026-05-06 12:46 23.64959 113.44998 15206 ft 357 kts 81°
2026-05-06 12:46 23.65401 113.47760 15511 ft 382 kts 79°
2026-05-06 12:46 23.65930 113.50678 15978 ft 398 kts 78°
2026-05-06 12:46 23.66521 113.53644 16823 ft 402 kts 77°
2026-05-06 12:47 23.67143 113.56636 17647 ft 407 kts 77°
2026-05-06 12:47 23.67627 113.59705 18402 ft 413 kts 85°
2026-05-06 12:47 23.67715 113.62846 19093 ft 416 kts 94°
2026-05-06 12:47 23.67574 113.66014 19796 ft 421 kts 94°
2026-05-06 12:48 23.67444 113.69217 20485 ft 425 kts 94°
2026-05-06 12:48 23.67327 113.72219 21112 ft 430 kts 94°
2026-05-06 12:48 23.67199 113.75496 21783 ft 434 kts 93°
2026-05-06 12:48 23.67069 113.78804 22437 ft 439 kts 93°
2026-05-06 12:49 23.66937 113.82149 23118 ft 444 kts 94°
2026-05-06 12:49 23.66802 113.85530 23740 ft 448 kts 93°
2026-05-06 12:49 23.66664 113.88939 24315 ft 452 kts 93°
2026-05-06 12:49 23.66524 113.92381 24886 ft 455 kts 93°
2026-05-06 12:50 23.66382 113.95843 25309 ft 458 kts 93°
2026-05-06 12:50 23.66238 113.99319 25489 ft 460 kts 93°
2026-05-06 12:50 23.66095 114.02800 25554 ft 460 kts 93°
2026-05-06 12:50 23.65950 114.06284 25558 ft 460 kts 93°
2026-05-06 12:51 23.65805 114.09767 25558 ft 460 kts 93°
2026-05-06 12:51 23.65659 114.13249 25558 ft 460 kts 93°
2026-05-06 12:51 23.65512 114.16736 25558 ft 460 kts 93°
2026-05-06 12:51 23.65365 114.20221 25557 ft 460 kts 93°
2026-05-06 12:52 23.65217 114.23706 25554 ft 461 kts 93°
2026-05-06 12:52 23.65168 114.27195 25556 ft 460 kts 85°
2026-05-06 12:52 23.65739 114.30620 25555 ft 460 kts 72°
2026-05-06 12:52 23.66984 114.33821 25556 ft 458 kts 59°
2026-05-06 12:53 23.68832 114.36624 25557 ft 455 kts 45°
2026-05-06 12:53 23.71183 114.38895 25556 ft 450 kts 33°
2026-05-06 12:53 23.73803 114.40752 25556 ft 448 kts 29°
2026-05-06 12:53 23.76447 114.42565 25556 ft 450 kts 30°
2026-05-06 12:54 23.79050 114.44464 25555 ft 450 kts 32°
2026-05-06 12:54 23.81573 114.46419 25555 ft 451 kts 33°
2026-05-06 12:54 23.84131 114.48477 25557 ft 451 kts 34°
2026-05-06 12:54 23.86639 114.50531 25559 ft 451 kts 34°
2026-05-06 12:55 23.89143 114.52594 25558 ft 451 kts 34°
2026-05-06 12:55 23.91613 114.54632 25558 ft 451 kts 34°
2026-05-06 12:55 23.94118 114.56699 25558 ft 451 kts 34°
2026-05-06 12:55 23.96657 114.58793 25560 ft 451 kts 34°
2026-05-06 12:56 23.99160 114.60856 25558 ft 451 kts 34°
2026-05-06 12:56 24.01667 114.62923 25559 ft 451 kts 34°
2026-05-06 12:56 24.04138 114.64964 25562 ft 450 kts 34°
2026-05-06 12:56 24.06671 114.67057 25563 ft 451 kts 34°
2026-05-06 12:57 24.09146 114.69102 25563 ft 451 kts 34°
2026-05-06 12:57 24.11651 114.71173 25561 ft 451 kts 34°
2026-05-06 12:57 24.14154 114.73242 25562 ft 451 kts 34°
2026-05-06 12:57 24.16658 114.75315 25565 ft 451 kts 34°
2026-05-06 12:58 24.19160 114.77385 25557 ft 451 kts 34°
2026-05-06 12:58 24.21662 114.79457 25560 ft 451 kts 34°
2026-05-06 12:58 24.24091 114.81641 25565 ft 453 kts 43°
2026-05-06 12:58 24.26078 114.84332 25568 ft 457 kts 56°
2026-05-06 12:59 24.27484 114.87457 25560 ft 459 kts 70°
2026-05-06 12:59 24.28227 114.90849 25562 ft 460 kts 83°
2026-05-06 12:59 24.28266 114.94345 25566 ft 459 kts 96°
2026-05-06 12:59 24.27793 114.97806 25548 ft 459 kts 101°
2026-05-06 13:00 24.27240 115.01253 25558 ft 459 kts 100°
2026-05-06 13:00 24.26765 115.04711 25560 ft 459 kts 98°
2026-05-06 13:00 24.26375 115.08185 25557 ft 460 kts 97°
2026-05-06 13:00 24.26040 115.11669 25545 ft 460 kts 96°
2026-05-06 13:01 24.25732 115.15156 25556 ft 459 kts 96°
2026-05-06 13:01 24.25432 115.18637 25557 ft 460 kts 96°
2026-05-06 13:01 24.25133 115.22124 25559 ft 460 kts 96°
2026-05-06 13:01 24.24833 115.25613 25556 ft 460 kts 96°
2026-05-06 13:02 24.24530 115.29105 25558 ft 460 kts 96°
2026-05-06 13:02 24.24226 115.32589 25542 ft 460 kts 96°
2026-05-06 13:02 24.23919 115.36080 25554 ft 461 kts 96°
2026-05-06 13:02 24.23612 115.39573 25555 ft 461 kts 96°
2026-05-06 13:03 24.23303 115.43066 25547 ft 461 kts 96°
2026-05-06 13:03 24.23005 115.46560 25558 ft 461 kts 95°
2026-05-06 13:03 24.22756 115.50059 25544 ft 461 kts 95°
2026-05-06 13:03 24.22525 115.53562 25558 ft 460 kts 95°
2026-05-06 13:04 24.22297 115.57010 25556 ft 461 kts 95°
2026-05-06 13:04 24.22056 115.60559 25566 ft 461 kts 95°
2026-05-06 13:04 24.21814 115.64065 25563 ft 461 kts 95°
2026-05-06 13:04 24.21569 115.67567 25557 ft 463 kts 95°
2026-05-06 13:05 24.21314 115.71153 25555 ft 481 kts 95°
2026-05-06 13:05 24.21049 115.74867 25555 ft 495 kts 95°
2026-05-06 13:05 24.20780 115.78636 25554 ft 497 kts 95°
2026-05-06 13:05 24.20511 115.82406 25555 ft 496 kts 95°
2026-05-06 13:06 24.20241 115.86173 25557 ft 496 kts 95°
2026-05-06 13:06 24.19969 115.89937 25557 ft 496 kts 95°
2026-05-06 13:06 24.19701 115.93709 25561 ft 496 kts 94°
2026-05-06 13:06 24.19636 115.97481 25560 ft 496 kts 86°
2026-05-06 13:07 24.20165 116.01109 25561 ft 496 kts 75°
2026-05-06 13:07 24.21389 116.04739 25565 ft 495 kts 63°
2026-05-06 13:07 24.23188 116.07935 25557 ft 489 kts 51°
2026-05-06 13:07 24.25441 116.10582 25560 ft 462 kts 38°
2026-05-06 13:08 24.27878 116.12462 25559 ft 435 kts 27°
2026-05-06 13:08 24.30526 116.14086 25564 ft 413 kts 26°
2026-05-06 13:08 24.33002 116.15605 25566 ft 393 kts 26°
2026-05-06 13:08 24.35324 116.17038 25563 ft 388 kts 26°
2026-05-06 13:09 24.37731 116.18523 25563 ft 394 kts 26°
2026-05-06 13:09 24.40117 116.19991 25563 ft 393 kts 26°
2026-05-06 13:09 24.42465 116.21437 25560 ft 392 kts 26°
2026-05-06 13:09 24.44777 116.23031 25567 ft 395 kts 37°
2026-05-06 13:10 24.46636 116.25268 25545 ft 400 kts 54°
2026-05-06 13:10 24.47844 116.28054 25371 ft 401 kts 73°
2026-05-06 13:10 24.48256 116.31071 24964 ft 400 kts 91°
2026-05-06 13:10 24.47821 116.34005 24693 ft 394 kts 110°
2026-05-06 13:11 24.46740 116.36764 24591 ft 395 kts 117°
2026-05-06 13:11 24.45558 116.39541 24569 ft 397 kts 115°
2026-05-06 13:11 24.44524 116.42301 24568 ft 397 kts 112°
2026-05-06 13:11 24.43594 116.45155 24568 ft 397 kts 110°
2026-05-06 13:12 24.42740 116.48038 24567 ft 397 kts 109°
2026-05-06 13:12 24.41919 116.50937 24408 ft 398 kts 108°
2026-05-06 13:12 24.41109 116.53849 24189 ft 405 kts 108°
2026-05-06 13:12 24.40253 116.56917 23972 ft 436 kts 108°
2026-05-06 13:13 24.39344 116.60166 23759 ft 450 kts 108°
2026-05-06 13:13 24.38428 116.63441 23540 ft 448 kts 108°
2026-05-06 13:13 24.37517 116.66693 23282 ft 445 kts 108°
2026-05-06 13:13 24.36610 116.69928 23024 ft 443 kts 108°
2026-05-06 13:14 24.35704 116.73147 22773 ft 441 kts 108°
2026-05-06 13:14 24.34801 116.76357 22519 ft 439 kts 108°
2026-05-06 13:14 24.33900 116.79551 22270 ft 437 kts 108°
2026-05-06 13:14 24.33003 116.82730 22022 ft 435 kts 108°
2026-05-06 13:15 24.32110 116.85891 21780 ft 433 kts 108°
2026-05-06 13:15 24.31221 116.89040 21531 ft 432 kts 108°
2026-05-06 13:15 24.30333 116.92178 21289 ft 430 kts 108°
2026-05-06 13:15 24.29450 116.95299 21054 ft 428 kts 108°
2026-05-06 13:16 24.28866 116.97358 20888 ft 427 kts 108°
2026-05-06 13:16 24.27987 117.00457 20651 ft 425 kts 108°
2026-05-06 13:16 24.27110 117.03548 20412 ft 423 kts 108°
2026-05-06 13:16 24.26236 117.06623 19947 ft 424 kts 108°
2026-05-06 13:17 24.25357 117.09715 19237 ft 424 kts 108°
2026-05-06 13:17 24.24188 117.13820 18327 ft 419 kts 108°
2026-05-06 13:17 24.23614 117.15834 17825 ft 416 kts 108°
2026-05-06 13:17 24.22761 117.18831 17207 ft 409 kts 108°
2026-05-06 13:18 24.21921 117.21778 16553 ft 402 kts 108°
2026-05-06 13:18 24.21092 117.24683 15907 ft 397 kts 108°
2026-05-06 13:18 24.20271 117.27554 15250 ft 393 kts 108°
2026-05-06 13:18 24.19460 117.30389 14603 ft 389 kts 108°
2026-05-06 13:19 24.18656 117.33194 13986 ft 385 kts 108°
2026-05-06 13:19 24.17859 117.35976 13318 ft 381 kts 108°
2026-05-06 13:19 24.17075 117.38713 12751 ft 374 kts 108°
2026-05-06 13:19 24.16302 117.41412 12152 ft 369 kts 108°
2026-05-06 13:20 24.15539 117.44074 11553 ft 365 kts 108°
2026-05-06 13:20 24.14794 117.46710 10947 ft 360 kts 105°
2026-05-06 13:20 24.14600 117.49421 10389 ft 357 kts 84°
2026-05-06 13:20 24.15325 117.51960 10136 ft 343 kts 60°
2026-05-06 13:21 24.16736 117.53974 9994 ft 326 kts 46°
2026-05-06 13:21 24.18276 117.55719 9785 ft 313 kts 44°
2026-05-06 13:21 24.19797 117.57405 9382 ft 308 kts 45°
2026-05-06 13:21 24.21259 117.59064 9204 ft 299 kts 46°
2026-05-06 13:22 24.22696 117.60737 8831 ft 302 kts 46°
2026-05-06 13:22 24.24117 117.62422 8436 ft 299 kts 47°
2026-05-06 13:22 24.25516 117.64095 8034 ft 296 kts 47°
2026-05-06 13:22 24.26899 117.65754 7635 ft 293 kts 47°
2026-05-06 13:23 24.28266 117.67396 7245 ft 290 kts 47°
2026-05-06 13:23 24.29620 117.69023 6853 ft 288 kts 47°
2026-05-06 13:23 24.30965 117.70638 6464 ft 286 kts 48°
2026-05-06 13:23 24.32300 117.72242 6065 ft 284 kts 48°
2026-05-06 13:24 24.33624 117.73834 5674 ft 281 kts 48°
2026-05-06 13:24 24.34932 117.75409 5370 ft 275 kts 47°
2026-05-06 13:24 24.36189 117.76923 5253 ft 262 kts 47°
2026-05-06 13:24 24.37373 117.78348 5160 ft 250 kts 47°
2026-05-06 13:25 24.38518 117.79726 5079 ft 239 kts 47°
2026-05-06 13:25 24.39518 117.81130 4992 ft 229 kts 64°
2026-05-06 13:25 24.39912 117.82765 4920 ft 217 kts 86°
2026-05-06 13:25 24.40007 117.84390 4729 ft 212 kts 86°
2026-05-06 13:26 24.40119 117.86026 4258 ft 219 kts 85°
2026-05-06 13:26 24.40246 117.87715 3703 ft 224 kts 85°
2026-05-06 13:26 24.40379 117.89434 3184 ft 226 kts 85°
2026-05-06 13:26 24.40507 117.91103 3022 ft 211 kts 85°
2026-05-06 13:27 24.40680 117.92616 3023 ft 188 kts 77°
2026-05-06 13:27 24.41150 117.93960 2960 ft 191 kts 62°
2026-05-06 13:27 24.41865 117.95168 2858 ft 188 kts 54°
2026-05-06 13:27 24.42667 117.96300 2717 ft 188 kts 51°
2026-05-06 13:28 24.43467 117.97419 2588 ft 184 kts 52°
2026-05-06 13:28 24.44261 117.98531 2506 ft 184 kts 52°
2026-05-06 13:28 24.45004 117.99573 2416 ft 162 kts 52°
2026-05-06 13:28 24.45655 118.00485 2340 ft 143 kts 52°
2026-05-06 13:29 24.46235 118.01298 2266 ft 128 kts 53°
2026-05-06 13:29 24.46770 118.02050 2130 ft 123 kts 53°
2026-05-06 13:29 24.47298 118.02790 1995 ft 122 kts 52°
2026-05-06 13:29 24.47818 118.03520 1840 ft 120 kts 53°
2026-05-06 13:30 24.48333 118.04241 1690 ft 120 kts 52°
2026-05-06 13:30 24.48849 118.04965 1535 ft 120 kts 53°
2026-05-06 13:30 24.49363 118.05686 1382 ft 119 kts 53°
2026-05-06 13:30 24.49875 118.06404 1226 ft 120 kts 53°
2026-05-06 13:31 24.50389 118.07126 1061 ft 120 kts 53°
2026-05-06 13:31 24.50903 118.07847 914 ft 121 kts 53°
2026-05-06 13:31 24.51425 118.08569 740 ft 122 kts 52°
2026-05-06 13:31 24.51954 118.09286 601 ft 121 kts 53°
2026-05-06 13:32 24.52458 118.10011 418 ft 122 kts 54°
2026-05-06 13:32 24.52983 118.10749 259 ft 123 kts 53°
2026-05-06 13:32 24.53503 118.11471 109 ft 122 kts 53°
2026-05-06 13:32 24.54000 118.12183 43 ft 105 kts 52°
2026-05-06 13:33 24.54326 118.12641 44 ft 56 kts 52°
2026-05-06 13:33 24.54496 118.12919 43 ft 30 kts 69°
2026-05-06 13:33 24.54526 118.13058 44 ft 0 kts 78°
2026-05-06 13:35 24.54526 118.13060 44 ft 2 kts 78°
2026-05-06 13:35 24.54543 118.13152 44 ft 29 kts 79°
2026-05-06 13:35 24.54635 118.13365 44 ft 32 kts 52°
2026-05-06 13:35 24.54631 118.13444 44 ft 10 kts 159°
2026-05-06 13:36 24.54569 118.13399 43 ft 16 kts 232°
2026-05-06 13:36 24.54472 118.13265 42 ft 27 kts 232°
2026-05-06 13:36 24.54415 118.13201 44 ft 6 kts 180°
2026-05-06 13:36 24.54341 118.13212 44 ft 9 kts 204°
2026-05-06 13:37 24.54281 118.13129 42 ft 22 kts 232°
2026-05-06 13:37 24.54167 118.12974 42 ft 30 kts 231°
2026-05-06 13:37 24.54025 118.12768 44 ft 36 kts 232°
2026-05-06 13:37 24.53926 118.12630 44 ft 0 kts 232°
2026-05-06 13:38 24.53907 118.12609 44 ft 7 kts 216°
2026-05-06 13:38 24.53856 118.12610 44 ft 6 kts 144°
2026-05-06 13:38 24.53846 118.12618 43 ft 2 kts 141°
2026-05-06 13:38 24.53831 118.12630 44 ft 4 kts 144°
2026-05-06 13:39 24.53828 118.12632 44 ft 0 kts 143°
2026-05-06 13:39 24.53828 118.12633 44 ft 1 kts 144°
2026-05-06 13:39 24.53827 118.12633 44 ft 0 kts 144°
2026-05-06 13:40 24.53827 118.12634 44 ft 0 kts 144°